Weather History for Sydney Airport, New South Wales

Change the Weather History Date:

Sunday, November 3, 2013

  Actual Average Record
Temperature  
Mean Temperature 80 °F -  
Max Temperature 95 °F 75 °F - ()
Min Temperature 62 °F 60 °F - ()
Cooling Degree Days 14    
Growing Degree Days 30 (Base 50)    
Moisture  
Dew Point 48 °F    
Average Humidity 47    
Maximum Humidity 83    
Minimum Humidity 4    
Precipitation  
Precipitation 0.00 in 0.13 in - ()
Sea Level Pressure  
Sea Level Pressure 29.86 in    
Wind  
Wind Speed 13 mph ()    
Max Wind Speed 36 mph    
Max Gust Speed 47 mph    
Visibility 6.7 miles    
Events      
T = Trace of Precipitation, MM = Missing Value Source: Averaged Metar Reports

Daily Weather History Graph

Daily Weather History Graph

Search for Another Location

Airport:

Trip Planner

Search our weather history database for the weather conditions in past years. The results will help you decide how hot, cold, wet, or windy it might be!

Date:

Astronomy

Nov. 03, 2013 Rise Set
Actual Time 5:53 AM AEDT 7:25 PM AEDT
Civil Twilight 5:26 AM AEDT 7:51 PM AEDT
Nautical Twilight 4:54 AM AEDT 8:23 PM AEDT
Astronomical Twilight 4:21 AM AEDT 8:57 PM AEDT
Moon 5:26 AM AEDT (11/3) 7:07 PM AEDT (11/3)
Length of Visible Light 14h 25m
Length of Day
13h 31m
Waning Crescent, 0% of the Moon is Illuminated
Nov 3
Waning Crescent
Nov 3
New
Nov 10
First Quarter
Nov 18
Full
Nov 26
Last Quarter

Hourly Weather History & Observations

Time (AEDT) Temp. Dew Point Humidity Pressure Visibility Wind Dir Wind Speed Gust Speed Precip Events Conditions
12:00 AM 72 °F 60 °F 58% 29.93 in 12 mi NE 4.6 mph - -   Partly Cloudy
12:00 AM 71.6 °F 60.8 °F 69% 29.92 in - NE 4.6 mph - N/A   Clear
12:30 AM 69.8 °F 59.0 °F 68% 29.92 in - North 3.5 mph - N/A   Clear
1:00 AM 70 °F 62 °F 70% 29.92 in - SW 3.5 mph - -  
1:00 AM 69.8 °F 62.6 °F 78% 29.92 in - SW 3.5 mph - N/A   Clear
1:30 AM 71.6 °F 55.4 °F 57% 29.89 in - North 4.6 mph - N/A   Clear
2:00 AM 69 °F 58 °F 58% 29.89 in - NW 3.5 mph - -  
2:00 AM 69.8 °F 57.2 °F 64% 29.89 in - NW 3.5 mph - N/A   Clear
2:30 AM 69.8 °F 57.2 °F 64% 29.86 in - WNW 5.8 mph - N/A   Clear
3:00 AM 69 °F 56 °F 54% 29.88 in 16 mi NNW 5.8 mph - -   Haze
3:00 AM 69.8 °F 55.4 °F 60% 29.86 in - NNW 5.8 mph - N/A   Clear
3:30 AM 68.0 °F 55.4 °F 64% 29.86 in - North 8.1 mph - N/A   Clear
4:00 AM 67 °F 56 °F 58% 29.86 in - NNW 8.1 mph - -  
4:00 AM 68.0 °F 55.4 °F 64% 29.86 in - NNW 8.1 mph - N/A   Clear
4:30 AM 68.0 °F 55.4 °F 64% 29.83 in - North 8.1 mph - N/A   Clear
5:00 AM 67 °F 56 °F 61% 29.85 in - North 6.9 mph - -  
5:00 AM 68.0 °F 57.2 °F 68% 29.83 in - North 6.9 mph - N/A   Clear
5:30 AM 66.2 °F 57.2 °F 73% 29.83 in - North 5.8 mph - N/A   Clear
6:00 AM 66 °F 56 °F 63% 29.84 in 16 mi NNW 8.1 mph - -   Partly Cloudy
6:00 AM 66.2 °F 57.2 °F 73% 29.83 in - NNW 8.1 mph - N/A   Clear
6:30 AM 68.0 °F 55.4 °F 64% 29.83 in - WNW 8.1 mph - N/A   Clear
7:00 AM 68 °F 55 °F 54% 29.84 in - NW 8.1 mph - -  
7:00 AM 68.0 °F 55.4 °F 64% 29.83 in - NW 8.1 mph - N/A   Clear
7:30 AM 68.0 °F 53.6 °F 60% 29.83 in 5.6 mi NW 6.9 mph - N/A   Unknown
8:00 AM 68 °F 52 °F 47% 29.85 in - WNW 6.9 mph - -  
8:00 AM 68.0 °F 51.8 °F 56% 29.83 in 3.7 mi WNW 6.9 mph - N/A   Unknown
8:30 AM 75.2 °F 50.0 °F 41% 29.83 in 3.1 mi NNW 6.9 mph - N/A   Smoke
9:00 AM 78 °F 46 °F 22% 29.83 in 2 mi WNW 6.9 mph - -   Smoke
9:00 AM 78.8 °F 46.4 °F 32% 29.83 in 2.2 mi WNW 6.9 mph - N/A   Smoke
9:30 AM 84.2 °F 39.2 °F 20% 29.83 in 3.1 mi WNW 12.7 mph - N/A   Smoke
10:00 AM 83 °F 40 °F 13% 29.83 in - West 11.5 mph - -  
10:00 AM 82.4 °F 41.0 °F 23% 29.83 in 3.1 mi West 11.5 mph - N/A   Smoke
10:30 AM 82.4 °F 44.6 °F 26% 29.80 in 3.7 mi WNW 9.2 mph - N/A   Unknown
11:00 AM 87 °F 41 °F 11% 29.81 in - WNW 8.1 mph - -  
11:00 AM 86.0 °F 41.0 °F 20% 29.80 in 5.6 mi WNW 8.1 mph - N/A   Unknown
11:30 AM 87.8 °F 35.6 °F 16% 29.77 in - NW 13.8 mph - N/A   Clear
11:42 AM 89.6 °F 28.4 °F 11% 29.77 in - NW 17.3 mph 31.1 mph N/A   Clear
12:00 PM 91 °F 30 °F 5% 29.77 in 19 mi NW 21.9 mph - -   Partly Cloudy
12:00 PM 91.4 °F 30.2 °F 11% 29.77 in - NW 21.9 mph 33.4 mph N/A   Clear
12:30 PM 93.2 °F 28.4 °F 10% 29.74 in - NW 23.0 mph - N/A   Clear
1:00 PM 94 °F 30 °F 5% 29.73 in - West 24.2 mph - -  
1:00 PM 95.0 °F 30.2 °F 10% 29.71 in - West 24.2 mph 36.8 mph N/A   Clear
1:30 PM 91.4 °F 32.0 °F 12% 29.71 in - West 27.6 mph 40.3 mph N/A   Clear
2:00 PM 92 °F 33 °F 6% 29.73 in - West 29.9 mph - -  
2:00 PM 91.4 °F 33.8 °F 13% 29.71 in - West 29.9 mph - N/A   Clear
2:18 PM 91.4 °F 33.8 °F 13% 29.71 in - West 27.6 mph 39.1 mph N/A   Clear
2:30 PM 91.4 °F 33.8 °F 13% 29.71 in - West 25.3 mph 36.8 mph N/A   Clear
2:38 PM 91.4 °F 26.6 °F 10% 29.71 in - WSW 31.1 mph - N/A   Clear
3:00 PM 92 °F 27 °F 4% 29.72 in 22 mi WSW 26.5 mph - -   Partly Cloudy
3:00 PM 93.2 °F 24.8 °F 9% 29.71 in - WSW 26.5 mph - N/A   Clear
3:18 PM 91.4 °F 28.4 °F 10% 29.71 in - WSW 23.0 mph 34.5 mph N/A   Clear
3:19 PM 78.8 °F 57.2 °F 47% 29.71 in 6.2 mi South 19.6 mph 33.4 mph N/A   Partly Cloudy
3:34 PM 71.6 °F 62.6 °F 73% 29.74 in 6.2 mi South 32.2 mph 43.7 mph N/A   Partly Cloudy
4:00 PM 69 °F 62 °F 73% 29.79 in - South 35.7 mph - -  
4:00 PM 68.0 °F 62.6 °F 83% 29.77 in 5.6 mi South 35.7 mph - N/A   Scattered Clouds
4:10 PM 68.0 °F 62.6 °F 83% 29.77 in 5.6 mi South 35.7 mph 47.2 mph N/A   Scattered Clouds
4:30 PM 68.0 °F 60.8 °F 78% 29.80 in 5.6 mi South 35.7 mph 47.2 mph N/A   Scattered Clouds
5:00 PM 68 °F 59 °F 65% 29.84 in - South 34.5 mph - -  
5:00 PM 68.0 °F 59.0 °F 73% 29.83 in 5.6 mi South 34.5 mph - N/A   Partly Cloudy
5:30 PM 66.2 °F 55.4 °F 68% 29.86 in 5.6 mi SSE 34.5 mph 46.0 mph N/A   Scattered Clouds
6:00 PM 67 °F 53 °F 52% 29.90 in 7 mi SSE 31.1 mph - -   Partly Cloudy
6:00 PM 66.2 °F 53.6 °F 64% 29.89 in 6.2 mi SSE 31.1 mph - N/A   Scattered Clouds
6:23 PM 64.4 °F 51.8 °F 64% 29.92 in 6.2 mi SSE 28.8 mph 44.9 mph N/A   Mostly Cloudy
6:30 PM 64.4 °F 51.8 °F 64% 29.92 in 6.2 mi SSE 28.8 mph 44.9 mph N/A   Mostly Cloudy
7:00 PM 65 °F 50 °F 47% 29.96 in - SSE 28.8 mph - -  
7:00 PM 64.4 °F 50.0 °F 59% 29.95 in 6.2 mi SSE 28.8 mph - N/A   Mostly Cloudy
7:30 PM 64.4 °F 50.0 °F 59% 29.95 in 6.2 mi SSE 28.8 mph - N/A   Mostly Cloudy
8:00 PM 64 °F 51 °F 52% 30.00 in - SSE 26.5 mph - -  
8:00 PM 64.4 °F 50.0 °F 59% 29.98 in 6.2 mi SSE 26.5 mph - N/A   Scattered Clouds
8:30 PM 64.4 °F 50.0 °F 59% 30.01 in 6.2 mi SSE 24.2 mph - N/A   Scattered Clouds
9:00 PM 64 °F 49 °F 47% 30.04 in 12 mi SSE 24.2 mph - -   Partly Cloudy
9:00 PM 64.4 °F 48.2 °F 56% 30.04 in 6.2 mi SSE 24.2 mph - N/A   Mostly Cloudy
9:30 PM 64.4 °F 46.4 °F 52% 30.06 in 6.2 mi SSE 23.0 mph - N/A   Mostly Cloudy
10:00 PM 64 °F 48 °F 45% 30.08 in - SSE 23.0 mph - -  
10:00 PM 64.4 °F 48.2 °F 56% 30.06 in 6.2 mi SSE 23.0 mph - N/A   Mostly Cloudy
10:30 PM 64.4 °F 48.2 °F 56% 30.09 in 6.2 mi South 21.9 mph - N/A   Mostly Cloudy
11:00 PM 64 °F 48 °F 45% 30.10 in - South 21.9 mph - -  
11:00 PM 64.4 °F 48.2 °F 56% 30.09 in 6.2 mi South 21.9 mph - N/A   Mostly Cloudy
11:30 PM 62.6 °F 46.4 °F 55% 30.09 in 6.2 mi South 23.0 mph - N/A   Scattered Clouds